Wind_Speed
45 40 40 39 40 39 40 39 40 42 38 39 37 37 32 28 27 22 21 21 22 25 24 23 22 26 21 27 32 31 29 25 30 31 39 36 36 39 35 31 30 30 33
47 43 41 42 43 44 43 40 39 42 45 42 43 40 37 29 29 31 23 21 26 23 26 24 21 25 21 29 29 35 30 29 23 28 36 36 36 43 44 37 30 31 33
54 51 49 47 46 47 49 47 45 43 43 46 45 45 45 37 32 28 30 25 24 25 27 18 23 22 20 26 24 33 25 27 29 31 33 29 35 39 45 48 38 37 35
60 58 52 51 51 52 52 52 50 48 46 44 48 50 49 44 38 32 31 29 24 26 26 25 26 22 20 27 28 29 26 26 30 31 31 24 31 40 40 39 45 51 39
64 62 59 56 54 55 55 57 56 51 52 53 51 52 52 50 44 42 31 35 33 28 28 30 30 30 30 29 28 32 26 22 28 28 30 25 29 37 37 39 45 47 49
68 69 66 63 61 59 57 57 58 55 53 54 54 53 56 56 51 47 41 36 37 34 30 30 33 32 35 37 34 32 31 25 26 31 28 27 33 28 34 40 42 46 48
71 71 70 67 66 61 62 62 62 61 57 54 56 57 59 58 58 56 53 47 43 43 38 37 36 39 40 41 35 38 35 33 31 35 31 25 34 29 32 36 41 46 47
73 75 73 71 69 66 64 62 63 63 63 60 58 57 59 61 60 58 57 52 51 44 46 43 41 42 43 42 41 37 36 33 35 36 37 28 31 30 28 35 35 39 45
80 78 76 73 74 72 66 67 66 67 66 65 59 60 60 62 61 60 59 56 54 56 50 48 48 49 45 48 39 41 42 38 38 36 35 35 31 30 34 32 33 35 39
79 76 74 77 73 69 73 69 70 71 67 69 66 64 64 61 61 61 60 58 58 55 57 49 48 49 48 44 44 47 42 41 38 38 37 38 35 33 29 31 37 45 40
87 82 85 81 80 79 77 78 75 74 71 68 68 66 70 68 69 66 63 64 62 56 59 59 54 52 50 52 53 50 45 44 41 42 42 43 39 34 29 31 31 42 32
93 89 86 82 83 83 81 82 84 80 75 74 73 71 68 69 68 68 71 66 66 67 64 64 62 60 60 57 60 51 50 48 48 44 47 44 48 39 32 30 38 38 36
99 94 94 91 91 89 87 83 85 85 82 79 78 75 74 77 79 71 74 73 75 75 77 73 71 69 65 64 65 59 59 52 51 54 49 52 53 42 36 34 36 33 30
105 103 99 96 96 93 92 92 96 89 84 91 86 87 87 86 86 84 84 81 83 83 79 79 78 75 74 71 68 64 60 61 63 57 58 47 49 50 44 38 36 29 31
105 107 106 104 102 100 98 98 99 97 93 93 94 90 89 91 87 89 86 88 90 85 83 86 85 82 81 78 73 68 64 66 63 59 56 53 48 49 47 42 37 38 33
107 107 108 107 106 105 104 103 105 106 109 105 104 102 96 97 95 96 91 87 89 89 94 93 89 86 90 84 80 75 74 73 69 66 65 55 53 53 51 49 40 41 40
105 107 110 110 111 111 112 112 113 116 115 114 114 114 111 113 110 100 99 100 98 96 98 98 93 91 91 87 85 78 79 76 75 74 69 63 56 55 52 50 45 43 43
106 105 106 107 109 111 110 112 114 116 116 120 123 116 113 113 109 110 110 108 107 106 103 99 96 94 91 87 80 87 81 81 78 76 76 69 68 64 59 55 52 45 44
102 103 102 103 104 106 107 108 109 111 112 113 114 113 116 115 114 113 112 109 109 107 106 102 99 94 92 86 83 86 88 84 79 80 76 73 69 68 68 61 55 52 47
102 103 103 102 102 101 102 103 104 106 107 108 105 104 103 107 108 106 105 107 104 102 102 97 95 92 89 85 82 85 88 83 80 77 79 76 73 69 69 70 61 57 56
106 106 105 102 101 101 103 103 103 102 103 104 102 100 99 101 102 101 99 100 99 100 98 96 94 91 89 85 82 84 81 84 85 81 76 71 72 76 73 68 68 66 60
110 108 108 108 106 104 104 104 104 104 104 104 103 102 99 98 98 98 99 99 96 94 94 91 91 90 88 86 85 84 84 84 82 89 87 78 71 72 74 75 71 68 65
114 114 112 110 110 109 109 108 108 108 108 107 105 104 103 102 101 100 99 98 97 96 94 94 93 90 89 89 88 87 86 85 85 83 91 91 87 78 73 72 75 70 69
119 118 118 116 114 113 112 111 110 110 110 110 108 106 106 106 105 104 104 103 101 100 99 98 97 95 93 93 92 91 90 87 85 85 89 95 98 93 85 78 78 80 77
121 120 119 118 118 119 119 117 116 116 115 114 112 111 110 109 108 107 106 105 105 106 103 102 102 102 101 101 98 94 92 91 91 89 90 91 97 100 103 92 91 79 75
119 120 120 120 120 118 118 118 118 117 116 116 115 113 113 112 111 110 110 109 109 106 106 105 104 105 103 101 100 98 98 97 96 91 90 94 92 97 99 105 102 95 86
Wind_Direction
242 242 244 253 254 255 255 262 263 257 266 275 279 280 287 289 297 303 301 311 319 323 333 328 336 346 343 349 354 5 5 355 347 352 11 13 13 8 6 1 2 6 10
244 243 246 251 252 255 253 257 259 258 262 269 278 278 280 282 285 298 295 300 312 311 317 326 326 337 339 336 346 346 360 355 352 358 15 13 22 27 19 9 5 8 10
251 249 249 253 252 252 255 254 254 260 258 265 272 274 278 274 277 288 297 295 300 303 309 307 309 327 323 324 347 336 349 351 3 354 4 11 19 17 19 16 16 9 6
249 249 249 248 248 249 250 252 254 255 257 260 264 269 274 271 272 278 289 287 287 294 295 296 308 307 311 311 330 324 341 350 356 354 353 11 22 14 15 18 14 11 7
249 247 248 249 250 252 250 252 251 253 255 258 260 265 271 271 272 271 278 288 289 284 291 289 297 304 307 305 311 319 331 336 338 349 351 355 353 358 9 8 1 12 14
248 247 248 251 252 250 253 251 251 254 254 255 257 261 267 272 270 271 271 279 287 283 281 283 293 294 299 304 309 310 317 318 328 339 342 345 346 340 352 353 360 359 10
247 244 248 250 253 257 255 254 253 253 253 252 255 259 263 266 269 271 273 274 277 283 282 278 281 283 294 296 305 304 311 316 320 324 340 335 343 336 340 355 348 358 0
244 245 247 251 252 256 253 253 258 258 259 257 258 259 261 263 264 268 270 275 276 278 282 281 284 284 292 288 294 301 301 304 312 315 323 325 340 331 343 342 354 349 360
245 245 249 248 252 256 249 252 259 257 257 255 259 260 264 263 264 265 269 269 273 280 282 277 280 282 288 285 290 291 294 298 303 308 312 319 323 322 329 330 347 347 351
243 250 249 250 251 253 251 253 257 254 257 257 258 261 262 264 265 265 264 267 270 275 280 274 274 278 283 278 283 287 289 290 296 300 303 305 315 318 316 327 330 335 338
246 244 245 252 251 253 252 253 258 255 255 259 257 256 263 261 261 259 261 268 267 270 275 272 269 271 274 275 279 281 277 285 288 295 296 301 306 308 304 312 320 326 342
254 251 243 245 244 245 250 255 256 254 254 258 255 255 260 258 260 261 259 265 268 269 268 270 269 272 272 269 276 274 274 279 282 288 287 293 298 295 298 303 309 316 321
251 250 251 250 246 249 249 250 253 254 250 254 254 254 258 258 263 259 263 262 265 267 267 265 268 268 267 272 274 275 279 268 277 285 280 289 295 288 291 296 295 305 310
250 252 253 253 249 251 248 250 252 251 246 248 253 260 262 263 262 262 268 265 261 267 263 267 268 268 270 271 269 269 274 274 279 279 281 276 281 284 284 286 285 288 300
250 252 254 255 256 257 255 255 256 253 254 256 257 256 259 264 259 261 261 263 259 262 259 263 266 270 272 271 268 263 269 273 268 266 274 270 267 277 275 275 275 277 287
247 249 251 252 252 254 255 256 256 258 260 261 261 262 260 260 262 256 259 260 258 257 259 264 265 267 272 271 271 265 265 273 270 265 269 263 260 269 270 271 271 271 279
244 245 247 249 252 253 255 255 256 258 259 260 262 262 262 264 266 262 260 263 264 259 261 260 263 266 266 270 270 261 269 268 268 268 264 264 258 257 263 260 257 262 269
243 243 245 246 247 249 250 253 256 258 259 260 260 259 260 262 262 264 264 264 264 264 264 262 259 261 263 263 262 262 261 262 263 262 263 259 262 259 258 259 256 253 257
242 243 244 245 247 248 249 251 252 254 255 255 257 256 258 259 261 262 263 262 262 262 263 264 262 261 259 258 256 257 263 264 259 260 257 258 256 254 253 256 248 251 253
244 243 244 244 245 246 248 249 250 251 251 252 253 255 256 257 259 259 260 261 262 262 263 262 261 259 260 258 257 249 251 256 261 261 259 259 252 251 250 251 251 249 256
243 244 244 244 245 246 247 248 248 249 251 252 253 254 255 257 259 259 260 261 261 262 263 263 263 262 260 258 258 256 255 249 249 254 258 251 252 256 254 246 251 248 250
246 246 245 245 246 246 248 249 250 250 250 251 252 254 254 255 257 258 259 259 260 261 261 263 263 263 261 260 258 257 256 253 252 243 247 254 246 249 254 252 250 242 248
246 247 248 248 248 248 248 249 249 250 251 252 252 252 253 254 254 255 257 258 259 260 261 261 261 262 261 260 258 258 256 254 249 247 242 242 248 255 252 245 242 247 245
247 248 248 249 250 251 251 251 252 252 253 253 254 254 254 254 255 255 256 257 258 259 260 259 259 260 261 261 261 260 259 256 250 246 243 241 243 245 248 248 249 249 248
246 248 249 250 251 252 252 252 253 254 254 254 254 254 255 256 256 258 259 259 257 258 260 260 259 259 259 259 260 258 257 255 253 251 247 244 243 244 243 244 249 246 241
247 247 248 249 250 251 252 252 253 255 255 256 256 255 256 256 257 257 258 259 259 260 262 263 262 261 260 260 260 260 258 257 255 251 249 248 243 241 243 243 243 246 244
Height
10843 10847 10849 10853 10856 10859 10861 10863 10865 10868 10870 10873 10876 10876 10878 10880 10879 10881 10882 10882 10883 10884 10882 10881 10880 10879 10879 10878 10877 10875 10873 10871 10868 10866 10863 10859 10854 10850 10845 10839 10835 10831 10826
10836 10840 10843 10847 10851 10854 10856 10859 10861 10863 10865 10866 10870 10872 10874 10877 10877 10877 10879 10880 10881 10882 10881 10880 10879 10878 10877 10877 10877 10876 10875 10872 10869 10867 10865 10861 10858 10853 10848 10842 10837 10833 10829
10830 10834 10837 10841 10844 10848 10851 10853 10856 10859 10860 10862 10864 10867 10869 10872 10874 10874 10875 10878 10878 10879 10880 10879 10878 10877 10877 10875 10876 10875 10875 10873 10871 10869 10867 10864 10860 10856 10851 10846 10840 10838 10832
10820 10825 10829 10833 10836 10840 10844 10847 10850 10853 10855 10857 10859 10861 10863 10866 10868 10871 10873 10874 10875 10875 10876 10877 10876 10875 10875 10874 10875 10874 10875 10875 10873 10871 10869 10866 10862 10859 10855 10850 10845 10839 10834
10812 10816 10819 10823 10827 10831 10835 10839 10843 10846 10848 10851 10853 10855 10857 10859 10863 10865 10866 10869 10871 10872 10873 10873 10873 10874 10873 10872 10872 10872 10874 10874 10874 10872 10870 10868 10865 10862 10858 10854 10849 10844 10838
10802 10806 10809 10813 10818 10822 10826 10831 10834 10838 10841 10843 10845 10849 10850 10852 10856 10860 10862 10864 10866 10869 10870 10869 10869 10870 10869 10869 10870 10870 10872 10872 10874 10873 10870 10868 10866 10864 10861 10857 10853 10848 10842
10791 10795 10799 10804 10807 10813 10816 10821 10824 10827 10831 10835 10837 10841 10843 10846 10848 10853 10856 10859 10861 10863 10866 10866 10866 10866 10866 10866 10867 10868 10869 10869 10870 10872 10871 10868 10866 10864 10862 10858 10855 10851 10846
10779 10784 10790 10793 10798 10801 10806 10810 10814 10818 10822 10825 10828 10831 10834 10838 10841 10845 10848 10851 10854 10857 10860 10860 10861 10861 10861 10862 10863 10865 10866 10867 10867 10867 10869 10868 10867 10865 10862 10860 10856 10853 10849
10766 10773 10778 10783 10788 10791 10796 10799 10802 10808 10811 10815 10819 10822 10825 10827 10831 10836 10840 10842 10847 10848 10852 10855 10855 10855 10856 10856 10857 10859 10861 10863 10864 10864 10865 10866 10865 10865 10862 10860 10857 10855 10850
10755 10761 10766 10771 10776 10780 10783 10787 10791 10797 10801 10805 10809 10812 10815 10817 10820 10824 10829 10833 10836 10840 10843 10847 10849 10849 10850 10851 10851 10855 10855 10858 10860 10861 10861 10862 10863 10863 10862 10859 10857 10856 10852
10742 10747 10753 10758 10763 10768 10772 10775 10779 10783 10789 10793 10797 10801 10805 10808 10810 10813 10817 10821 10825 10829 10832 10836 10841 10843 10844 10845 10845 10845 10850 10851 10855 10856 10857 10857 10858 10859 10859 10858 10856 10854 10852
10725 10732 10737 10744 10747 10753 10758 10763 10767 10769 10773 10779 10785 10789 10792 10796 10798 10801 10804 10807 10810 10815 10820 10824 10829 10833 10837 10838 10838 10839 10842 10844 10846 10850 10851 10853 10853 10855 10855 10856 10853 10852 10850
10711 10715 10720 10726 10732 10736 10742 10748 10754 10757 10759 10764 10768 10771 10775 10778 10782 10788 10792 10796 10799 10801 10807 10811 10815 10820 10826 10829 10831 10830 10832 10835 10838 10842 10845 10843 10848 10850 10849 10851 10850 10849 10847
10695 10697 10702 10709 10717 10721 10726 10731 10735 10741 10743 10748 10752 10758 10763 10769 10773 10775 10780 10785 10788 10790 10792 10796 10800 10804 10810 10817 10821 10821 10820 10824 10827 10832 10836 10837 10838 10842 10844 10845 10846 10845 10846
10672 10679 10685 10691 10697 10702 10707 10713 10719 10724 10729 10732 10736 10740 10746 10751 10758 10762 10764 10767 10772 10775 10777 10782 10785 10789 10793 10800 10807 10810 10810 10813 10814 10820 10826 10829 10829 10834 10836 10839 10838 10840 10841
10652 10660 10666 10672 10678 10684 10689 10693 10700 10705 10711 10715 10720 10724 10727 10733 10739 10746 10749 10751 10757 10761 10763 10765 10769 10773 10776 10784 10789 10794 10798 10799 10803 10807 10813 10820 10822 10823 10829 10830 10833 10833 10835
10631 10636 10643 10650 10656 10662 10669 10674 10680 10684 10689 10695 10700 10704 10708 10714 10720 10725 10732 10736 10740 10745 10749 10751 10752 10757 10762 10764 10769 10777 10782 10785 10789 10794 10799 10805 10813 10813 10818 10821 10823 10826 10828
10608 10615 10620 10628 10635 10642 10647 10653 10659 10666 10669 10675 10680 10683 10687 10691 10697 10703 10710 10715 10721 10727 10732 10734 10736 10740 10744 10748 10753 10752 10766 10768 10770 10776 10785 10790 10798 10804 10805 10812 10815 10816 10821
10588 10594 10600 10606 10612 10618 10625 10631 10638 10643 10648 10654 10658 10661 10665 10669 10675 10680 10685 10690 10698 10704 10711 10717 10722 10722 10727 10732 10737 10740 10742 10746 10754 10762 10769 10775 10783 10790 10794 10799 10804 10807 10812
10569 10575 10581 10586 10592 10597 10603 10610 10615 10622 10627 10632 10636 10640 10644 10648 10653 10659 10663 10669 10674 10680 10687 10694 10701 10705 10708 10714 10718 10726 10733 10732 10732 10740 10749 10759 10764 10772 10779 10785 10792 10797 10802
10546 10552 10559 10566 10573 10579 10585 10590 10596 10602 10608 10614 10618 10623 10626 10629 10633 10638 10643 10648 10652 10658 10666 10672 10678 10684 10690 10695 10698 10704 10711 10720 10729 10728 10730 10738 10745 10753 10761 10769 10775 10784 10789
10524 10531 10537 10544 10551 10557 10563 10570 10576 10582 10588 10594 10600 10604 10607 10611 10615 10618 10623 10628 10633 10639 10645 10651 10656 10661 10667 10674 10682 10686 10691 10699 10709 10720 10721 10720 10725 10732 10742 10752 10761 10769 10777
10501 10509 10516 10522 10528 10534 10541 10548 10555 10561 10568 10574 10579 10583 10588 10593 10596 10599 10604 10609 10614 10619 10625 10630 10635 10640 10645 10651 10657 10664 10673 10679 10685 10695 10704 10709 10711 10714 10721 10730 10743 10752 10761
10477 10486 10492 10499 10506 10512 10519 10525 10532 10539 10546 10551 10557 10563 10567 10571 10576 10580 10584 10589 10595 10599 10603 10608 10614 10620 10624 10628 10635 10641 10649 10657 10665 10675 10682 10689 10696 10702 10706 10711 10722 10734 10744
10456 10461 10468 10475 10482 10489 10495 10502 10508 10514 10521 10527 10533 10539 10544 10548 10553 10558 10563 10568 10573 10577 10582 10587 10591 10596 10602 10605 10611 10618 10622 10632 10640 10653 10660 10667 10675 10680 10689 10697 10702 10711 10725
10428 10434 10442 10449 10457 10464 10470 10477 10483 10489 10495 10502 10508 10514 10518 10523 10529 10535 10539 10544 10548 10552 10556 10560 10565 10570 10575 10581 10586 10591 10599 10605 10614 10625 10634 10639 10653 10659 10666 10675 10684 10691 10705